Location: Appleton
(44.2618°N, 88.4157°W)
Time: 01:52:55
(UTC+00:00)

Tiros 1 despin weight - Pass Details

Date: 05 March 2021
Orbit: 593 x 641 km, 48.2° (Epoch: 10 April)

Event Time Altitude Azimuth Distance (km) Brightness Sun altitude
Exits shadow 09:06:23 16° 98° (E) 1,642 ? -34.9°
Drops below altitude 10° 09:07:25 10° 100° (E) 2,028 ? -34.8°
Sets 09:09:46 0° 103° (ESE) 2,937 ? -34.4°
